Location: *
(50.3440°N, 18.6237°E)
Time: 13:18:40
(UTC+00:00)

CZ-4 R/B - Pass Details

Date: 30 November 2020
Orbit: 532 x 598 km, 97.7° (Epoch: 27 January)

Event Time Altitude Azimuth Distance (km) Brightness Sun altitude
Exits shadow 17:40:23 49° 250° (WSW) 737 2.2 -27.0°
Maximum altitude 17:40:34 49° 260° (W) 733 2.2 -27.0°
Drops below altitude 10° 17:44:33 10° 337° (NNW) 1,890 4.3 -27.7°
Sets 17:46:48 0° 343° (NNW) 2,805 5.1 -28.0°
